Content
SEND FEEDBACK

Daily
Averages
Monthly
Summary
France

COULOMMIERS, FRANCE


Home > Europe > France
Elevation: 466 feet     Latitude: 48 50N     Longitude: 003 00E

WEATHER
 
SELECT A DAY
Number of Records: 64,807;   Date Range: 7/28/06 - 8/10/14
 
SHARE

PRINT THIS DATA

[ ← Previous Day ]
WEATHER ALMANAC - JANUARY 31, 2013
[ Next Day → ]
[ °C ]   °F
Weather ElementAverageHighLow
Temperature45.2 °F51.8 °F (2:00 pm)37.4 °F (2:30 am)
Dewpoint41.6 °F46.4 °F (3:00 pm)35.6 °F (1:30 am)
Humidity87.5 %100 % (4:30 am)76 % (2:00 pm)
Barometer30.15 in30.27 in (1:00 am)30.09 in (1:30 pm)
Wind Speed14.2 mph26.5 mph (1:00 pm)
Weather ElementAverage
Visibility5.9 mi
Wind DirectionSSW (212.6 °)

Weather ElementTotal
Precipitation---
Heating Degree Days20.4 (Base 65)
Averaged from 47 records on January 31, 2013
WEATHER CONDITIONS BREAKOUT
WIND DIRECTION BREAKOUT
WEATHER BY HOUR - JANUARY 31, 2013
[ °C ]   °F
Local TimeTemperatureDewpointHumidityBarometerVisibilityWind DirectionWind SpeedGust SpeedPrecipitationEventsConditions
12:30 AM41.0 °F37.4 °F87 %30.24 in6.2 miSW (220°)8.1 mph
1:00 AM42.8 °F37.4 °F81 %30.27 in6.2 miWSW (240°)9.2 mph
1:30 AM39.2 °F35.6 °F87 %30.24 in6.2 miSSW (200°)5.8 mph
2:00 AM39.2 °F35.6 °F87 %30.24 in6.2 miSouth (190°)9.2 mph
2:30 AM37.4 °F35.6 °F93 %30.24 in6.2 miSSW (200°)8.1 mph
3:00 AM37.4 °F35.6 °F93 %30.27 in6.2 miSSW (200°)9.2 mph
3:30 AM37.4 °F35.6 °F93 %30.24 in6.2 miSouth (190°)8.1 mph
4:00 AM37.4 °F35.6 °F93 %30.24 in6.2 miSouth (190°)9.2 mph
4:30 AM37.4 °F37.4 °F100 %30.21 in5.6 miSouth (170°)8.1 mph
5:00 AM37.4 °F37.4 °F100 %30.21 inSouth (170°)6.9 mphMist
5:30 AM39.2 °F37.4 °F93 %30.21 in3.7 miSouth (190°)9.2 mphPartly Cloudy
6:00 AM39.2 °F37.4 °F93 %30.18 in5.0 miSouth (180°)9.2 mph
6:30 AM41.0 °F39.2 °F93 %30.21 in2.2 miSSW (200°)16.1 mphMostly Cloudy
7:00 AM41.0 °F41.0 °F100 %30.18 in2.2 miSouth (190°)17.3 mphOvercast
7:30 AM41.0 °F41.0 °F100 %30.18 in6.2 miSouth (190°)16.1 mphOvercast
8:00 AM41.0 °F41.0 °F100 %30.18 in5.6 miSSW (200°)15.0 mphOvercast
8:30 AM42.8 °F41.0 °F93 %30.18 in6.2 miSSW (200°)13.8 mphOvercast
9:00 AM42.8 °F41.0 °F93 %30.18 in6.2 miSSW (200°)15.0 mphOvercast
9:30 AM42.8 °F41.0 °F93 %30.18 in6.2 miSW (220°)20.7 mphOvercast
10:00 AM44.6 °F41.0 °F87 %30.18 in6.2 miSSW (210°)19.6 mphOvercast
10:30 AM44.6 °F42.8 °F93 %30.15 in6.2 miSSW (200°)21.9 mphOvercast
11:00 AM46.4 °F42.8 °F87 %30.15 in6.2 miSSW (200°)20.7 mphMostly Cloudy
11:30 AM46.4 °F42.8 °F87 %30.15 in6.2 miSSW (210°)21.9 mphMostly Cloudy
12:00 PM48.2 °F44.6 °F87 %30.15 in6.2 miSSW (210°)24.2 mphMostly Cloudy
12:30 PM50.0 °F44.6 °F82 %30.12 in6.2 miSW (220°)23.0 mphMostly Cloudy
1:00 PM50.0 °F44.6 °F82 %30.12 in6.2 miSW (220°)26.5 mphMostly Cloudy
1:30 PM50.0 °F44.6 °F82 %30.09 in6.2 miSW (220°)23.0 mphMostly Cloudy
2:00 PM51.8 °F44.6 °F76 %30.09 in6.2 miSW (220°)20.7 mphMostly Cloudy
2:30 PM51.8 °F44.6 °F76 %30.09 in6.2 miSW (220°)21.9 mphMostly Cloudy
3:00 PM50.0 °F46.4 °F87 %30.09 in6.2 miSW (230°)19.6 mphRainLight Rain
3:30 PM50.0 °F46.4 °F87 %30.09 in6.2 miSW (220°)19.6 mphOvercast
4:00 PM50.0 °F46.4 °F87 %30.09 in6.2 miSW (230°)20.7 mphMostly Cloudy
4:30 PM51.8 °F46.4 °F82 %30.09 in6.2 miWSW (250°)19.6 mphMostly Cloudy
5:00 PM50.0 °F46.4 °F87 %30.09 in6.2 miWSW (240°)15.0 mphPartly Cloudy
5:30 PM50.0 °F44.6 °F82 %30.09 in6.2 miWSW (240°)13.8 mphPartly Cloudy
6:00 PM50.0 °F42.8 °F76 %30.09 in6.2 miWSW (240°)15.0 mph
6:30 PM50.0 °F42.8 °F76 %30.09 in6.2 miWSW (240°)13.8 mph
7:00 PM48.2 °F41.0 °F76 %30.12 in6.2 miSW (230°)11.5 mph
7:30 PM48.2 °F41.0 °F76 %30.12 in6.2 miSW (230°)11.5 mphPartly Cloudy
8:00 PM48.2 °F42.8 °F82 %30.12 in6.2 miSW (220°)8.1 mphMostly Cloudy
8:30 PM48.2 °F42.8 °F82 %30.12 in6.2 miSW (220°)8.1 mphScattered Clouds
9:00 PM48.2 °F42.8 °F82 %30.12 in6.2 miWSW (240°)8.1 mphScattered Clouds
9:30 PM48.2 °F44.6 °F87 %30.12 in6.2 miWSW (240°)10.4 mphPartly Cloudy
10:00 PM48.2 °F44.6 °F87 %30.12 in6.2 miSW (220°)6.9 mphPartly Cloudy
10:30 PM48.2 °F44.6 °F87 %30.12 in6.2 miSW (220°)11.5 mphPartly Cloudy
11:00 PM48.2 °F44.6 °F87 %30.09 in6.2 miSSW (210°)9.2 mphPartly Cloudy
11:30 PM46.4 °F44.6 °F93 %30.09 in6.2 miSSW (200°)8.1 mphScattered Clouds
Hourly data recorded from LFPM, located miles away from Coulommiers, France







STORIES FROM OUR PARTNERS